[[{"header":{"parameterUnit":"m.s-1","parameterCategory":1,"la1":30.2991,"la2":30.254,"lo1":-89.0895,"lo2":-89.0444,"dy":0.0017,"dx":0.0017,"nx":28,"ny":28,"refTime":"2024-08-12T21:00:00:Z","depth":0,"parameterNumber":2,"parameterNumberName":"U-component_of_WINDS"},"data":[0,0,0,0,0,0,0,0,0,0,0,0,0,0,0,0,0,0,0,0,0,0,0,0,0,0,0,0,0,0,0,0,0,0,0,0,0,0,0,0,0,0,0,0,0,0,0,0,0,0,0,0,0,0,0,0,0,0,1.9207,1.9207,0,1.9209,1.9209,1.9209,1.9141,1.9139,1.9137,1.9135,1.9141,1.9143,1.9145,0,0,0,0,0,0,0,0,0,0,0,0,0,1.9147,1.9149,1.9207,1.9207,1.9207,1.9209,1.9209,1.9209,1.9141,1.9139,1.9137,1.9135,1.914,1.9143,1.9145,0,0,0,0,0,0,0,0,0,0,0,0,0,1.9164,1.9149,1.9207,1.9173,1.917,1.9209,1.9209,1.9209,1.9142,1.9139,1.9136,1.9134,1.914,1.9142,1.9145,1.9218,0,0,1.9154,1.9155,0,0,0,0,0,0,0,0,1.9163,1.9166,1.9178,1.9175,1.9172,1.9172,1.919,1.9212,1.9142,1.9153,1.9135,1.9132,1.9154,1.9155,1.9162,1.9218,1.9218,1.9154,1.9156,1.9157,1.9158,0,0,0,0,0,0,0,1.9162,1.9166,1.9208,1.9178,1.9175,1.9159,1.9158,1.9194,1.9169,1.9151,1.9146,1.9148,1.9152,1.9159,1.9161,1.9218,1.9154,1.9156,1.9158,1.9159,1.9336,1.9339,0,0,0,0,0,0,1.9165,1.9165,1.9208,1.9208,1.9161,1.9163,1.9162,1.9175,1.9168,1.9164,1.915,1.9144,1.9156,1.9158,1.9161,1.9247,1.9157,1.9159,1.9161,1.9333,1.9337,1.934,0,0,0,0,0,0,1.9164,1.9169,1.9208,1.9185,1.9189,1.9166,1.9182,1.9176,1.9184,1.9167,1.9162,1.9162,1.9154,1.9157,1.9204,1.9246,1.9161,1.9163,1.933,1.9334,1.9338,1.9418,0,0,0,0,0,0,1.9162,1.9169,1.9196,1.9186,1.919,1.925,1.9184,1.9178,1.9188,1.9181,1.9177,1.9174,1.9152,1.9201,1.9207,1.9248,1.9165,1.9326,1.9332,1.9337,1.9412,1.9425,1.9436,0,0,0,0,0,1.9161,1.9218,1.9197,1.9203,1.9222,1.9252,1.9255,1.9227,1.9192,1.9219,1.9209,1.9174,1.9241,1.9206,1.9213,1.9256,1.9323,1.933,1.9337,1.9406,1.9423,1.9436,0,0,0,0,0,0,1.9234,1.9216,1.9193,1.9249,1.9253,1.924,1.9273,1.9245,1.9259,1.9252,1.9218,1.9218,1.9271,1.9268,1.923,1.9327,1.9276,1.9284,1.9327,1.9342,1.9354,1.9354,1.9168,0,0,0,0,0,1.9256,1.928,1.9264,1.9316,1.9319,1.9296,1.9308,1.9287,1.9289,1.9291,1.9283,1.9288,1.9311,1.9326,1.9345,1.9411,1.941,1.9444,1.9456,1.9467,1.9475,1.9511,1.9527,1.9362,1.9362,1.9362,0,0,1.9303,1.9297,1.9314,1.933,1.933,1.9358,1.9298,1.9329,1.9349,1.9296,1.934,1.9335,1.9338,1.9396,1.9421,1.9395,1.952,1.9475,1.9483,1.9486,1.952,1.9535,1.9549,1.9367,1.9366,1.9365,0,0,1.9403,1.94,1.9443,1.9444,1.9445,1.943,1.9441,1.9434,1.9428,1.9472,1.9433,1.9457,1.9496,1.95,1.9508,1.9611,1.9581,1.9619,1.9683,1.9719,1.9732,1.9743,1.9782,1.9796,1.9627,1.9627,1.9627,0,1.9461,1.95,1.9469,1.9503,1.9512,1.9464,1.9509,1.9512,1.952,1.9528,1.9499,1.9547,1.9546,1.9605,1.963,1.9637,1.965,1.9619,1.9732,1.9743,1.9754,1.979,1.9804,1.9632,1.9631,1.9631,1.963,0,1.9573,1.96,1.9635,1.9643,1.9656,1.9696,1.9672,1.9689,1.9668,1.9656,1.9702,1.97,1.9718,1.9731,1.971,1.9787,1.9771,1.9738,1.9686,1.9774,1.9808,1.9822,1.9638,1.9637,1.9635,1.9634,0,0,1.9717,1.9709,1.9722,1.9726,1.9725,1.9747,1.9785,1.9802,1.9819,1.9826,1.9858,1.9893,1.9862,1.9871,1.985,1.9882,1.9966,1.9845,1.9844,1.9868,2.0054,2.0079,2.0096,1.9946,1.9949,1.995,2.0054,0,1.9815,1.9878,1.9852,1.9919,1.9945,1.9901,1.9935,1.9938,1.9929,1.9951,1.9942,1.9967,1.9924,1.9929,1.9959,1.995,2.0003,1.9942,1.9977,1.9979,1.9978,2.0113,2.014,2.0237,2.0066,2.0069,2.007,0,1.9937,1.995,2.0019,2.0014,2.0024,2.0054,2.007,2.0091,2.0095,2.0086,2.0097,2.007,2.0109,2.0057,2.0111,2.007,2.0083,2.0082,2.0085,2.0087,2.003,2.0121,2.0267,2.0283,2.009,2.0089,2.0087,0,2.0038,2.0072,2.0118,2.0122,2.0118,2.0141,2.014,2.0141,2.0154,2.0168,2.0177,2.0195,2.0206,2.0221,2.0201,2.0165,2.0259,2.0205,2.0254,2.0255,2.0276,2.0275,2.0428,2.0283,2.0283,2.0283,2.0282,0,2.015,2.0194,2.0163,2.0191,2.024,2.0211,2.0261,2.0256,2.0258,2.0285,2.0249,2.0276,2.0247,2.0272,2.0256,2.0304,2.0309,2.0304,2.03,2.0308,2.0309,2.0317,2.031,2.0286,2.0286,2.0285,2.0284,0,2.027,2.0251,2.0298,2.0291,2.029,2.0327,2.0321,2.0348,2.0336,2.0372,2.0379,2.0362,2.039,2.0371,2.0399,2.0388,2.0452,2.0437,2.045,2.0447,2.0497,2.0493,2.0661,2.0682,2.0523,2.0525,2.0526,0,2.0343,2.0376,2.0372,2.0388,2.039,2.0416,2.0429,2.0402,2.0417,2.0426,2.0452,2.0477,2.0495,2.0542,2.0533,2.0555,2.0541,2.0599,2.0544,2.0552,2.0543,2.0542,2.0546,2.061,2.0612,2.0613,2.0614,0,2.0476,2.0465,2.0485,2.0502,2.0519,2.0531,2.0541,2.0556,2.0529,2.0549,2.0576,2.0591,2.062,2.0645,2.0664,2.0664,2.0636,2.0632,2.0644,2.0653,2.066,2.0658,2.0481,2.0628,2.0627,2.0626,2.0625,2.0624,2.0576,2.0604,2.0606,2.0629,2.0634,2.0644,2.0669,2.0662,2.0684,2.0705,2.0688,2.0722,2.0727,2.0749,2.0753,2.078,2.0757,2.0775,2.078,2.0785,2.0793,2.0655,2.0784,2.0783,2.0783,2.0782,2.0782,0,2.0707,2.0706,2.0729,2.0743,2.0763,2.0733,2.0743,2.0762,2.0791,2.0798,2.0817,2.085,2.0875,2.0869,2.0892,2.0915,2.0902,2.0922,2.092,2.0921,2.0812,2.0799,2.0931,2.0931,2.0931,2.0931,2.0931,2.0931,2.0778,2.0824,2.0814,2.0863,2.0862,2.0894,2.0903,2.0913,2.0918,2.0956,2.0977,2.0972,2.0974,2.0997,2.102,2.1017,2.1028,2.1052,2.1046,2.0943,2.0929,2.0915,2.0902,2.1055,2.1055,2.1153,2.1154,2.1155]},{"header":{"parameterUnit":"m.s-1","parameterCategory":1,"la1":30.2991,"la2":30.254,"lo1":-89.0895,"lo2":-89.0444,"dy":0.0017,"dx":0.0017,"nx":28,"ny":28,"refTime":"2024-08-12T21:00:00:Z","depth":0,"parameterNumber":3,"parameterNumberName":"V-component_of_WINDS"},"data":[0,0,0,0,0,0,0,0,0,0,0,0,0,0,0,0,0,0,0,0,0,0,0,0,0,0,0,0,0,0,0,0,0,0,0,0,0,0,0,0,0,0,0,0,0,0,0,0,0,0,0,0,0,0,0,0,0,0,-1.3044,-1.3044,0,-1.3046,-1.3046,-1.3046,-1.3051,-1.3051,-1.3051,-1.3051,-1.3051,-1.3051,-1.3051,0,0,0,0,0,0,0,0,0,0,0,0,0,-1.3044,-1.3044,-1.3044,-1.3044,-1.3044,-1.3046,-1.3046,-1.3046,-1.3051,-1.3051,-1.3051,-1.3051,-1.3051,-1.3051,-1.3051,0,0,0,0,0,0,0,0,0,0,0,0,0,-1.3045,-1.3044,-1.3044,-1.3047,-1.3047,-1.3046,-1.3046,-1.3046,-1.3051,-1.3051,-1.3051,-1.3051,-1.3051,-1.3051,-1.3051,-1.3048,0,0,-1.3051,-1.3051,0,0,0,0,0,0,0,0,-1.3045,-1.3045,-1.3046,-1.3047,-1.3047,-1.3048,-1.3046,-1.3047,-1.3051,-1.3049,-1.3051,-1.3051,-1.305,-1.305,-1.305,-1.3048,-1.3048,-1.3051,-1.3051,-1.3051,-1.3051,0,0,0,0,0,0,0,-1.3045,-1.3045,-1.3045,-1.3046,-1.3047,-1.3048,-1.3048,-1.3046,-1.3049,-1.3049,-1.305,-1.305,-1.305,-1.305,-1.305,-1.3048,-1.3051,-1.3051,-1.3051,-1.3051,-1.3045,-1.3044,0,0,0,0,0,0,-1.3044,-1.3045,-1.3045,-1.3045,-1.3046,-1.3048,-1.3048,-1.3048,-1.3049,-1.3049,-1.305,-1.305,-1.305,-1.305,-1.305,-1.3048,-1.3051,-1.3051,-1.3051,-1.3045,-1.3045,-1.3044,0,0,0,0,0,0,-1.3044,-1.3044,-1.3045,-1.3045,-1.3045,-1.3047,-1.3047,-1.3048,-1.3048,-1.3049,-1.305,-1.3049,-1.3051,-1.305,-1.3049,-1.3048,-1.3051,-1.305,-1.3045,-1.3045,-1.3045,-1.3041,0,0,0,0,0,0,-1.3044,-1.3044,-1.3043,-1.3045,-1.3045,-1.3043,-1.3047,-1.3048,-1.3048,-1.3048,-1.3049,-1.3049,-1.3051,-1.3049,-1.3049,-1.3047,-1.305,-1.3045,-1.3045,-1.3045,-1.3041,-1.3041,-1.3041,0,0,0,0,0,-1.3044,-1.3041,-1.3043,-1.3043,-1.3043,-1.3043,-1.3043,-1.3046,-1.3047,-1.3046,-1.3048,-1.3049,-1.3048,-1.3049,-1.3049,-1.3047,-1.3045,-1.3045,-1.3045,-1.3042,-1.3041,-1.3041,0,0,0,0,0,0,-1.3037,-1.3041,-1.3043,-1.304,-1.3042,-1.3044,-1.3042,-1.3045,-1.3045,-1.3045,-1.3047,-1.3048,-1.3046,-1.3046,-1.3047,-1.3045,-1.3047,-1.3047,-1.3045,-1.3044,-1.3044,-1.3044,-1.305,0,0,0,0,0,-1.3036,-1.3036,-1.3039,-1.3036,-1.3037,-1.3039,-1.3039,-1.3041,-1.3042,-1.3043,-1.3044,-1.3045,-1.3045,-1.3044,-1.3044,-1.3042,-1.3043,-1.3041,-1.304,-1.304,-1.304,-1.304,-1.304,-1.3044,-1.3044,-1.3044,0,0,-1.3032,-1.3034,-1.3033,-1.3035,-1.3036,-1.3036,-1.304,-1.3039,-1.3039,-1.3042,-1.3042,-1.3043,-1.3044,-1.3042,-1.3042,-1.3042,-1.3039,-1.304,-1.3039,-1.3039,-1.304,-1.304,-1.3039,-1.3044,-1.3044,-1.3044,0,0,-1.3025,-1.3026,-1.3025,-1.3027,-1.3029,-1.3031,-1.3031,-1.3034,-1.3035,-1.3034,-1.3037,-1.3037,-1.3037,-1.3038,-1.3039,-1.3035,-1.3037,-1.3035,-1.3033,-1.3033,-1.3033,-1.3033,-1.3032,-1.3032,-1.3035,-1.3035,-1.3035,0,-1.302,-1.302,-1.3024,-1.3024,-1.3025,-1.3029,-1.3028,-1.303,-1.3031,-1.3032,-1.3033,-1.3034,-1.3035,-1.3035,-1.3034,-1.3034,-1.3035,-1.3035,-1.3033,-1.3032,-1.3032,-1.3032,-1.3032,-1.3034,-1.3035,-1.3035,-1.3035,0,-1.3014,-1.3015,-1.3014,-1.3017,-1.3018,-1.3017,-1.3021,-1.3021,-1.3024,-1.3026,-1.3027,-1.3028,-1.3029,-1.3029,-1.3031,-1.303,-1.3031,-1.3032,-1.3034,-1.3032,-1.3032,-1.3032,-1.3034,-1.3034,-1.3034,-1.3034,0,0,-1.3002,-1.3009,-1.3008,-1.3011,-1.3015,-1.3015,-1.3015,-1.3018,-1.3019,-1.302,-1.3021,-1.3022,-1.3024,-1.3025,-1.3027,-1.3027,-1.3026,-1.3029,-1.3029,-1.3029,-1.3027,-1.3026,-1.3026,-1.3027,-1.3027,-1.3027,-1.3027,0,-1.2997,-1.2998,-1.3002,-1.3002,-1.3003,-1.3009,-1.3009,-1.3012,-1.3014,-1.3016,-1.3019,-1.302,-1.3022,-1.3023,-1.3023,-1.3026,-1.3026,-1.3026,-1.3029,-1.3029,-1.3029,-1.3025,-1.3024,-1.3023,-1.3027,-1.3027,-1.3027,0,-1.299,-1.2993,-1.2993,-1.2999,-1.3,-1.3,-1.3004,-1.3005,-1.3009,-1.3011,-1.3013,-1.3016,-1.3017,-1.3019,-1.3021,-1.3022,-1.3023,-1.3025,-1.3025,-1.3025,-1.3028,-1.3026,-1.3023,-1.3023,-1.3026,-1.3026,-1.3026,0,-1.2982,-1.2986,-1.2988,-1.2989,-1.2996,-1.2996,-1.2999,-1.3003,-1.3004,-1.3007,-1.3009,-1.3012,-1.3013,-1.3016,-1.302,-1.302,-1.3022,-1.3024,-1.3024,-1.3024,-1.3024,-1.3024,-1.3021,-1.3024,-1.3024,-1.3024,-1.3024,0,-1.2976,-1.2976,-1.2985,-1.2985,-1.2986,-1.2992,-1.2993,-1.2996,-1.3,-1.3002,-1.3006,-1.3007,-1.3012,-1.3015,-1.3018,-1.302,-1.3021,-1.3023,-1.3024,-1.3023,-1.3023,-1.3024,-1.3024,-1.3024,-1.3024,-1.3024,-1.3024,0,-1.2967,-1.2973,-1.2975,-1.2982,-1.2983,-1.2984,-1.299,-1.2991,-1.2995,-1.2997,-1.2998,-1.3004,-1.3007,-1.3012,-1.3016,-1.3018,-1.302,-1.3021,-1.3019,-1.302,-1.302,-1.3021,-1.3019,-1.3019,-1.3021,-1.3021,-1.3021,0,-1.2963,-1.2964,-1.2971,-1.2973,-1.2976,-1.2979,-1.2982,-1.2987,-1.299,-1.2995,-1.2996,-1.3,-1.3004,-1.3009,-1.3013,-1.3017,-1.3019,-1.3018,-1.3019,-1.3019,-1.302,-1.302,-1.3021,-1.3018,-1.3018,-1.3018,-1.3017,0,-1.2955,-1.2959,-1.2962,-1.2967,-1.297,-1.2974,-1.2979,-1.298,-1.2987,-1.2989,-1.2993,-1.2996,-1.3002,-1.3006,-1.3011,-1.3014,-1.3017,-1.3017,-1.3018,-1.3017,-1.3016,-1.3018,-1.3019,-1.3017,-1.3017,-1.3017,-1.3017,-1.3017,-1.2949,-1.2951,-1.2957,-1.2962,-1.2966,-1.297,-1.2972,-1.2977,-1.2981,-1.2987,-1.299,-1.2994,-1.3,-1.3007,-1.301,-1.3013,-1.3015,-1.3015,-1.3015,-1.3015,-1.3015,-1.3015,-1.3014,-1.3014,-1.3014,-1.3014,-1.3014,0,-1.2943,-1.2948,-1.2952,-1.2958,-1.2962,-1.2966,-1.2971,-1.2974,-1.2978,-1.2983,-1.2987,-1.2993,-1.2998,-1.3004,-1.3009,-1.3011,-1.3013,-1.3012,-1.3012,-1.3013,-1.3014,-1.3013,-1.3011,-1.3011,-1.3011,-1.3011,-1.3011,-1.3011,-1.294,-1.2943,-1.2948,-1.2954,-1.2959,-1.2964,-1.2967,-1.2971,-1.2976,-1.2982,-1.2986,-1.299,-1.2996,-1.3002,-1.3007,-1.3009,-1.3011,-1.301,-1.3012,-1.3012,-1.3013,-1.3013,-1.3013,-1.301,-1.301,-1.3011,-1.3011,-1.3011]}]]